Location: Newark
(44.2003°N, 3.2583°E)
Time: 06:11:13
(UTC+00:00)

STARLINK-1760 - Pass Details

Date: 26 September 2020
Orbit: 378 x 381 km, 53.0° (Epoch: 26 October)

Event Time Altitude Azimuth Distance (km) Brightness Sun altitude
Exits shadow 04:14:23 13° 326° (NW) 1,218 5.2 -15.9°
Maximum altitude 04:16:34 26° 20° (NNE) 787 4.8 -15.5°
Drops below altitude 10° 04:19:17 10° 81° (E) 1,399 7.1 -15.0°
Sets 04:21:31 0° 94° (E) 2,249 8.3 -14.6°
